Location: Unspecified
(41.1637°N, 24.2901°E)
Time: 10:41:01
(UTC+01:00)

ISS - Pass Details

Date: 20 January 2019
Orbit: 404 x 407 km, 51.6° (Epoch: 16 January)

Event Time Altitude Azimuth Distance (km) Brightness Sun altitude
Rises 17:57:21 0° 195° (SSW) 2,308 0.4 -17.4°
Reaches altitude 10° 17:59:55 10° 174° (S) 1,455 -1.0 -17.8°
Enters shadow 18:00:58 14° 156° (SSE) 1,217 -1.5 -18.0°
